Location: Drocourt
(49.0571°N, 1.7669°E)
Time: 19:54:15
(UTC+00:00)

Transit 4A - Pass Details

Date: 16 April 2024
Orbit: 871 x 971 km, 66.8° (Epoch: 18 May)

Event Time Altitude Azimuth Distance (km) Brightness Sun altitude
Rises 21:40:39 0° 324° (NW) 3,473 12.4 -23.7°
Reaches altitude 10° 21:43:09 10° 326° (NW) 2,529 11.3 -24.0°
Maximum altitude 21:49:00 79° 53° (NE) 895 7.7 -24.5°
Enters shadow 21:50:05 60° 123° (ESE) 998 7.7 -24.6°
Drops below altitude 10° 21:54:51 10° 141° (SE) 2,534 - -25.0°
Sets 21:57:21 0° 142° (SE) 3,480 - -25.2°
